Torna al catalogo

AYAME 1 DEB

AttivoHEO
NORAD 32483·DEBRIS·🇯🇵 Japan

Lanciato Feb 6, 1979 da Tanegashima Space Center

Loading…

Prossimi Passaggi (prossime 24 ore)

TLE

AggiornatoSource: Space-Track

Epoca: Sep 14, 2026, 09:39 UTC

1 32483U 79009D   26257.40274823 -.00000102  00000-0  00000-0 0  9991
2 32483   7.9896 280.1426 3726711 193.4318 307.9425  1.69447335114547

Traccia AYAME 1 DEB in tempo reale con AllMySat

Download on the App Store